TimeCDT,TemperatureF,Dew PointF,Humidity,Sea Level PressureIn,VisibilityMPH,Wind Direction,Wind SpeedMPH,Gust SpeedMPH,PrecipitationIn,Events,Conditions,WindDirDegrees,DateUTC
12:55 AM,61.0,59.0,93,30.11,10.0,Calm,Calm,-,N/A,,Clear,0,2012-10-04 05:55:00
1:55 AM,61.0,57.9,90,30.11,10.0,Calm,Calm,-,N/A,,Clear,0,2012-10-04 06:55:00
2:55 AM,59.0,57.0,93,30.12,7.0,Calm,Calm,-,N/A,,Clear,0,2012-10-04 07:55:00
3:55 AM,59.0,57.0,93,30.12,10.0,Calm,Calm,-,N/A,,Clear,0,2012-10-04 08:55:00
4:55 AM,59.0,57.0,93,30.14,10.0,Calm,Calm,-,N/A,,Clear,0,2012-10-04 09:55:00
5:55 AM,59.0,55.9,90,30.15,9.0,Calm,Calm,-,N/A,,Clear,0,2012-10-04 10:55:00
6:55 AM,59.0,55.9,90,30.16,10.0,East,3.5,-,N/A,,Clear,90,2012-10-04 11:55:00
7:26 AM,57.2,55.4,94,30.16,8.0,Calm,Calm,-,N/A,,Scattered Clouds,0,2012-10-04 12:26:00
7:35 AM,60.8,59.0,94,30.16,8.0,Calm,Calm,-,N/A,,Mostly Cloudy,0,2012-10-04 12:35:00
7:45 AM,62.6,60.8,94,30.16,2.5,ESE,3.5,-,N/A,,Overcast,120,2012-10-04 12:45:00
7:55 AM,64.0,62.1,93,30.17,1.2,Calm,Calm,-,N/A,,Overcast,0,2012-10-04 12:55:00
7:57 AM,62.6,62.6,100,30.16,0.8,Variable,3.5,-,N/A,,Overcast,0,2012-10-04 12:57:00
8:10 AM,64.4,62.6,94,30.17,0.2,ESE,3.5,-,N/A,Fog,Fog,120,2012-10-04 13:10:00
8:48 AM,66.2,64.4,94,30.18,0.2,ESE,6.9,-,N/A,Fog,Fog,110,2012-10-04 13:48:00
8:55 AM,66.0,64.9,96,30.19,0.8,ESE,5.8,-,N/A,,Mist,120,2012-10-04 13:55:00
9:00 AM,66.2,64.4,94,30.18,1.2,SE,6.9,-,N/A,,Overcast,130,2012-10-04 14:00:00
9:04 AM,66.2,64.4,94,30.18,2.0,SE,4.6,-,N/A,,Overcast,130,2012-10-04 14:04:00
9:13 AM,66.2,66.2,100,30.19,5.0,ESE,5.8,-,N/A,,Mostly Cloudy,120,2012-10-04 14:13:00
9:24 AM,68.0,66.2,94,30.19,8.0,ESE,5.8,-,N/A,,Scattered Clouds,120,2012-10-04 14:24:00
9:55 AM,70.0,66.0,87,30.20,10.0,SE,9.2,-,N/A,,Clear,140,2012-10-04 14:55:00
10:55 AM,79.0,66.0,64,30.21,10.0,SE,13.8,-,N/A,,Clear,140,2012-10-04 15:55:00
11:55 AM,81.0,64.9,58,30.20,10.0,SSE,5.8,-,N/A,,Scattered Clouds,150,2012-10-04 16:55:00
12:55 PM,82.0,63.0,52,30.18,10.0,SE,9.2,-,N/A,,Mostly Cloudy,130,2012-10-04 17:55:00
1:55 PM,84.9,62.1,46,30.16,10.0,SE,8.1,-,N/A,,Partly Cloudy,140,2012-10-04 18:55:00
2:55 PM,84.9,61.0,44,30.14,10.0,ESE,8.1,-,N/A,,Mostly Cloudy,120,2012-10-04 19:55:00
3:55 PM,82.9,60.1,46,30.14,10.0,South,5.8,-,N/A,,Clear,170,2012-10-04 20:55:00
4:55 PM,84.9,60.1,43,30.13,10.0,South,9.2,-,N/A,,Clear,170,2012-10-04 21:55:00
5:55 PM,82.0,62.1,51,30.13,10.0,SSE,8.1,-,N/A,,Clear,150,2012-10-04 22:55:00
6:55 PM,77.0,63.0,62,30.13,10.0,SSE,4.6,-,N/A,,Clear,150,2012-10-04 23:55:00
7:55 PM,73.0,64.0,73,30.14,10.0,Calm,Calm,-,N/A,,Clear,0,2012-10-05 00:55:00
8:55 PM,71.1,64.0,78,30.14,10.0,SSE,4.6,-,N/A,,Clear,150,2012-10-05 01:55:00
9:55 PM,73.0,64.9,76,30.15,10.0,Calm,Calm,-,N/A,,Clear,0,2012-10-05 02:55:00
10:55 PM,68.0,64.0,87,30.15,10.0,Calm,Calm,-,N/A,,Clear,0,2012-10-05 03:55:00
11:55 PM,66.9,64.0,90,30.15,10.0,Calm,Calm,-,N/A,,Clear,0,2012-10-05 04:55:00